Watford City, ND

12:42 PM CDT on October 17, 2017 (GMT -0500)
Watford City

Weather History for KS25 - October, 2012

Change the Weather History Date:

Tuesday, October 9, 2012

  Actual Average (KISN) Record (KISN)
Temperature  
Mean Temperature 35 °F -  
Max Temperature 42 °F 59 °F 89 °F (1910)
Min Temperature 28 °F 32 °F 4 °F (1985)
Degree Days  
Heating Degree Days 30    
Moisture  
Dew Point 25 °F    
Average Humidity 67    
Maximum Humidity 80    
Minimum Humidity 42    
Precipitation  
Precipitation 0.05 in - - ()
Sea Level Pressure  
Sea Level Pressure 29.99 in    
Wind  
Wind Speed 11 mph (WNW)    
Max Wind Speed 20 mph    
Max Gust Speed 28 mph    
Visibility 10 miles    
Events Rain    
Averages and records for this station are not official NWS values.
T = Trace of Precipitation, MM = Missing Value Source: NWS Daily Summary

Daily Weather History Graph

Daily Weather History Graph

Search for Another Location

Airport or City:

Trip Planner

Search our weather history database for the weather conditions in past years. The results will help you decide how hot, cold, wet, or windy it might be!

Date:

Astronomy

Oct. 09, 2012 Rise Set
Actual Time 8:04 AM CDT 7:15 PM CDT
Civil Twilight 7:33 AM CDT 7:46 PM CDT
Nautical Twilight 6:57 AM CDT 8:21 PM CDT
Astronomical Twilight 6:21 AM CDT 8:57 PM CDT
Moon 1:17 AM CDT (10/9) 4:06 PM CDT (10/9)
Length of Visible Light 12h 12m
Length of Day
11h 11m
Last Quarter, 36% of the Moon is Illuminated
Oct 9
Last Quarter
Oct 15
New
Oct 21
First Quarter
Oct 29
Full
Nov 6
Last Quarter

Hourly Weather History & Observations

Time (CDT) Temp. Windchill Dew Point Humidity Pressure Visibility Wind Dir Wind Speed Gust Speed Precip Events Conditions
12:15 AM 33.8 °F 25.3 °F 24.8 °F 70% 29.85 in 10.0 mi WNW 11.5 mph - N/A   Clear
12:35 AM 35.6 °F 26.6 °F 24.8 °F 65% 29.85 in 10.0 mi WNW 13.8 mph - N/A   Clear
12:55 AM 35.6 °F 26.2 °F 24.8 °F 65% 29.86 in 10.0 mi WNW 15.0 mph 19.6 mph N/A   Clear
1:15 AM 35.6 °F 27.1 °F 24.8 °F 65% 29.86 in 10.0 mi WNW 12.7 mph 19.6 mph N/A   Clear
1:55 AM 33.8 °F 23.9 °F 24.8 °F 70% 29.87 in 10.0 mi WNW 15.0 mph 21.9 mph N/A   Clear
2:15 AM 33.8 °F 23.5 °F 24.8 °F 70% 29.87 in 10.0 mi WNW 16.1 mph 23.0 mph N/A   Clear
3:15 AM 33.8 °F 22.5 °F 24.8 °F 70% 29.90 in 10.0 mi NW 19.6 mph 27.6 mph N/A   Clear
3:35 AM 32.0 °F 23.0 °F 24.8 °F 75% 29.91 in 10.0 mi WNW 11.5 mph 17.3 mph N/A   Clear
3:55 AM 32.0 °F 24.8 °F 26.6 °F 80% 29.91 in 10.0 mi NW 8.1 mph 16.1 mph N/A   Scattered Clouds
4:15 AM 32.0 °F 23.0 °F 26.6 °F 80% 29.92 in 10.0 mi NW 11.5 mph - N/A   Overcast
4:35 AM 32.0 °F 22.1 °F 26.6 °F 80% 29.93 in 10.0 mi NW 13.8 mph 20.7 mph N/A   Overcast
4:55 AM 32.0 °F 21.2 °F 26.6 °F 80% 29.94 in 10.0 mi NW 16.1 mph 20.7 mph N/A   Overcast
5:15 AM 32.0 °F 20.8 °F 26.6 °F 80% 29.93 in 10.0 mi NW 17.3 mph 23.0 mph N/A   Overcast
5:35 AM 32.0 °F 21.6 °F 26.6 °F 80% 29.94 in 10.0 mi NW 15.0 mph 26.5 mph N/A   Overcast
5:55 AM 32.0 °F 24.2 °F 26.6 °F 80% 29.95 in 10.0 mi NW 9.2 mph - N/A   Overcast
6:15 AM 32.0 °F 24.8 °F 26.6 °F 80% 29.96 in 10.0 mi WNW 8.1 mph - N/A   Overcast
6:35 AM 32.0 °F 23.6 °F 26.6 °F 80% 29.97 in 10.0 mi WNW 10.4 mph - N/A   Overcast
7:15 AM 32.0 °F 24.8 °F 26.6 °F 80% 29.98 in 10.0 mi NW 8.1 mph - N/A   Overcast
7:55 AM 32.0 °F 25.6 °F 26.6 °F 80% 29.98 in 10.0 mi WNW 6.9 mph - N/A   Overcast
8:15 AM 32.0 °F 23.6 °F 26.6 °F 80% 29.99 in 10.0 mi WNW 10.4 mph 16.1 mph N/A   Overcast
8:35 AM 32.0 °F 24.8 °F 26.6 °F 80% 29.99 in 10.0 mi West 8.1 mph - N/A   Overcast
8:55 AM 32.0 °F 23.6 °F 26.6 °F 80% 30.00 in 10.0 mi West 10.4 mph - N/A   Overcast
9:15 AM 32.0 °F 24.2 °F 26.6 °F 80% 30.01 in 10.0 mi West 9.2 mph - N/A   Overcast
9:35 AM 32.0 °F 22.5 °F 26.6 °F 80% 30.01 in 10.0 mi West 12.7 mph 16.1 mph N/A   Overcast
9:55 AM 32.0 °F 24.2 °F 26.6 °F 80% 30.02 in 10.0 mi WNW 9.2 mph - N/A   Overcast
10:15 AM 32.0 °F 24.2 °F 26.6 °F 80% 30.03 in 10.0 mi WNW 9.2 mph - N/A   Overcast
10:35 AM 32.0 °F 21.6 °F 26.6 °F 80% 30.03 in 10.0 mi WNW 15.0 mph - N/A   Overcast
10:55 AM 33.8 °F 24.3 °F 26.6 °F 75% 30.04 in 10.0 mi NW 13.8 mph 20.7 mph N/A   Overcast
11:15 AM 33.8 °F 23.9 °F 26.6 °F 75% 30.04 in 10.0 mi West 15.0 mph 19.6 mph N/A   Overcast
11:35 AM 35.6 °F 27.5 °F 28.4 °F 75% 30.04 in 10.0 mi WNW 11.5 mph - 0.05 in   Overcast
11:55 AM 35.6 °F 27.1 °F 26.6 °F 70% 30.04 in 10.0 mi WNW 12.7 mph 19.6 mph 0.05 in   Overcast
12:15 PM 37.4 °F 27.8 °F 26.6 °F 65% 30.04 in 10.0 mi WNW 17.3 mph - N/A   Mostly Cloudy
12:35 PM 37.4 °F 30.3 °F 26.6 °F 65% 30.04 in 10.0 mi West 10.4 mph - N/A   Mostly Cloudy
12:55 PM 37.4 °F 29.8 °F 26.6 °F 65% 30.04 in 10.0 mi WNW 11.5 mph 17.3 mph N/A   Mostly Cloudy
1:15 PM 37.4 °F 28.5 °F 26.6 °F 65% 30.04 in 10.0 mi WNW 15.0 mph - N/A   Overcast
1:35 PM 39.2 °F 31.6 °F 26.6 °F 61% 30.03 in 10.0 mi NW 12.7 mph - N/A   Overcast
1:55 PM 39.2 °F 30.8 °F 26.6 °F 61% 30.02 in 10.0 mi NW 15.0 mph 19.6 mph N/A   Mostly Cloudy
2:15 PM 39.2 °F 32.5 °F 28.4 °F 65% 30.02 in 10.0 mi NW 10.4 mph - N/A   Overcast
2:35 PM 41.0 °F 34.7 °F 26.6 °F 57% 30.02 in 10.0 mi NW 10.4 mph 19.6 mph N/A   Mostly Cloudy
2:55 PM 41.0 °F 34.7 °F 24.8 °F 53% 30.02 in 10.0 mi NW 10.4 mph 18.4 mph N/A   Mostly Cloudy
3:15 PM 41.0 °F 33.1 °F 24.8 °F 53% 30.02 in 10.0 mi NNW 15.0 mph - N/A   Overcast
3:35 PM 41.0 °F 33.1 °F 23.0 °F 49% 30.02 in 10.0 mi WNW 15.0 mph 19.6 mph N/A   Overcast
3:55 PM 41.0 °F 34.7 °F 24.8 °F 53% 30.02 in 10.0 mi NW 10.4 mph 20.7 mph N/A   Overcast
4:15 PM 41.0 °F 33.9 °F 24.8 °F 53% 30.02 in 10.0 mi NW 12.7 mph 19.6 mph N/A Rain Light Rain
4:35 PM 41.0 °F 34.7 °F 24.8 °F 53% 30.02 in 10.0 mi NW 10.4 mph 17.3 mph N/A   Overcast
4:55 PM 41.0 °F 34.7 °F 24.8 °F 53% 30.02 in 10.0 mi NW 10.4 mph - N/A   Mostly Cloudy
5:15 PM 41.0 °F 34.7 °F 24.8 °F 53% 30.02 in 10.0 mi NNW 10.4 mph 20.7 mph N/A   Overcast
5:35 PM 41.0 °F 33.9 °F 24.8 °F 53% 30.02 in 10.0 mi North 12.7 mph 23.0 mph N/A Rain Light Rain
5:55 PM 42.8 °F 36.2 °F 23.0 °F 46% 30.02 in 10.0 mi NW 12.7 mph 20.7 mph N/A   Mostly Cloudy
6:15 PM 41.0 °F 34.3 °F 23.0 °F 49% 30.02 in 10.0 mi NW 11.5 mph - N/A   Partly Cloudy
6:35 PM 41.0 °F 34.7 °F 21.2 °F 45% 30.02 in 10.0 mi WNW 10.4 mph - N/A   Clear
6:55 PM 41.0 °F 35.8 °F 19.4 °F 42% 30.02 in 10.0 mi NW 8.1 mph - N/A   Scattered Clouds
7:15 PM 39.2 °F 33.6 °F 19.4 °F 45% 30.03 in 10.0 mi NW 8.1 mph - N/A   Partly Cloudy
7:35 PM 37.4 °F 32.1 °F 19.4 °F 48% 30.02 in 10.0 mi WNW 6.9 mph - N/A   Clear
7:55 PM 35.6 °F 31.7 °F 19.4 °F 52% 30.02 in 10.0 mi West 4.6 mph - N/A   Clear
8:15 PM 32.0 °F 28.7 °F 21.2 °F 64% 30.02 in 10.0 mi SW 3.5 mph - N/A   Scattered Clouds
8:35 PM 32.0 °F 27.5 °F 23.0 °F 69% 30.03 in 10.0 mi SW 4.6 mph - N/A   Overcast
8:55 PM 33.8 °F 29.6 °F 23.0 °F 65% 30.03 in 10.0 mi SW 4.6 mph - N/A   Overcast
9:15 PM 33.8 °F 30.8 °F 23.0 °F 65% 30.03 in 10.0 mi WSW 3.5 mph - N/A   Overcast
9:35 PM 33.8 °F - 23.0 °F 65% 30.03 in 10.0 mi Calm Calm - N/A   Overcast
9:55 PM 32.0 °F 27.5 °F 23.0 °F 69% 30.03 in 10.0 mi WSW 4.6 mph - N/A   Overcast
10:15 PM 32.0 °F - 24.8 °F 75% 30.03 in 10.0 mi Calm Calm - N/A   Overcast
10:35 PM 32.0 °F 28.7 °F 23.0 °F 69% 30.03 in 10.0 mi South 3.5 mph - N/A   Scattered Clouds
10:55 PM 30.2 °F 26.7 °F 21.2 °F 69% 30.03 in 10.0 mi SSW 3.5 mph - N/A   Clear
11:15 PM 28.4 °F - 21.2 °F 74% 30.04 in 10.0 mi Calm Calm - N/A   Clear
11:35 PM 28.4 °F 24.6 °F 21.2 °F 74% 30.04 in 10.0 mi SSW 3.5 mph - N/A   Scattered Clouds
11:55 PM 28.4 °F 23.3 °F 23.0 °F 80% 30.04 in 10.0 mi SW 4.6 mph - N/A   Mostly Cloudy